Regional Weather Roundup
Issued by NWS

Home | Current Version | Previous Version | Graphics & Text | Print | Product List | Glossary Off
Versions: 1 2 3 4 5 6 7 8 9 10 11 12 13 14 15 16 17 18 19 20 21 22 23 24 25 26 27 28 29 30 31 32 33 34 35 36 37 38 39 40 41 42 43 44 45 46 47 48 49 50

000
ASUS43 KDMX 290207
RWRIA

WEATHER ROUNDUP FOR IOWA
NATIONAL WEATHER SERVICE DES MOINES IA
900 PM CDT THU AUG 28 2014

NOTE: "FAIR" INDICATES FEW OR NO CLOUDS BELOW 12,000 FEET WITH NO
SIGNIFICANT WEATHER AND/OR OBSTRUCTIONS TO VISIBILITY.

* - THESE STATIONS ARE NOT NWS STATIONS...THUS NOT UNDER NWS
QUALITY CONTROL.  THEY ALSO DO NOT REPORT WEATHER SUCH
AS PRECIPITATION OR FOG.

IAZ001>003-012>014-020>022-031>034-043>046-290300-
   NORTHWEST IOWA

CITY           SKY/WX    TMP DP  RH WIND       PRES   REMARKS
CARROLL *      MOCLDY    73  72  94 SE6G13    29.88R
DENISON *      MOCLDY    75  73  94 SE9G16    29.85R
LE MARS *      PTCLDY    73  72  94 SE6       29.82S
ORANGE CITY *  PTCLDY    73  70  88 CALM      29.84S
SHELDON *      CLOUDY    70  70 100 E7        29.83F FOG
SIOUX CITY     MOCLDY    75  72  90 SE6       29.81S
SPENCER        CLOUDY    72  70  93 SE8       29.86S
STORM LAKE *   CLOUDY    72  72 100 SE6       29.88R
$$

IAZ055>058-069>071-079>083-090>094-290300-
   SOUTHWEST IOWA

CITY           SKY/WX    TMP DP  RH WIND       PRES   REMARKS
ATLANTIC *     MOCLDY    72  70  94 S17       29.87S
AUDUBON *      LGT RAIN  77  75  94 CALM      29.88F
CLARINDA *     CLOUDY    77  73  88 NE6       29.88R
COUNCIL BLFS * PTCLDY    75  75 100 SE5       29.85R
CRESTON *      PTCLDY    75  75 100 SE7       29.89F
HARLAN  *      PTCLDY    77  75  94 SE9       29.90R
LAMONI         CLEAR     76  73  91 E6        29.90R
RED OAK *      CLOUDY    72  70  94 E6        29.87R
SHENANDOAH *   MOCLDY    73  72  94 N8        29.86R
$$

IAZ047>049-059>061-072>074-084-290300-
   CENTRAL IOWA

CITY           SKY/WX    TMP DP  RH WIND       PRES   REMARKS
AMES           MOCLDY    72  71  97 SE6       29.91R
ANKENY *         N/A     73  72  94 SE7       29.90R
CHARITON *     PTCLDY    73  72  94 SE7       29.91R
DES MOINES     CLOUDY    75  71  87 SE9       29.90R
GRINNELL*      CLEAR     70  68  94 E6        29.94R
KNOXVILLE *    MOCLDY    72  70  94 E6        29.91R
MARSHALLTOWN   CLOUDY    71  70  96 SE7       29.93R
PELLA *        CLEAR     72  70  94 SE3       29.93R
PERRY *        MOCLDY    73  73 100 SE6       29.89R
$$

IAZ004>006-015-016-023>025-035-036-290300-
   NORTH CENTRAL IOWA

CITY           SKY/WX    TMP DP  RH WIND       PRES   REMARKS
ALGONA *       CLOUDY    72  72 100 SE10      29.88S
CLARION *      CLEAR     72  72 100 SE8       29.90R
ESTHERVILLE    CLOUDY    67  67 100 E6        29.88S FOG
FORT DODGE *   MOCLDY    72  70  94 SE6       29.90R
MASON CITY     CLOUDY    69  68  96 SE9       29.92S
FOREST CITY *  CLOUDY    68  68 100 SE6       29.90S FOG
IOWA FALLS *   MOCLDY    70  68  94 SE6       29.93R
$$

IAZ007>011-017>019-026>030-037>042-050>054-066-290300-
   NORTHEAST IOWA

CITY           SKY/WX    TMP DP  RH WIND       PRES   REMARKS
CEDAR RAPIDS   CLOUDY    69  69 100 SE7       29.94R
CHARLES CITY * CLOUDY    68  66  94 SE8       29.94S
CLINTON *      CLOUDY    68  64  88 SE12G18   30.00S
DECORAH *      DRIZZLE   66  64  94 SE5       29.95S
DUBUQUE        CLOUDY    67  65  93 SE9       29.99S
MONTICELLO *   CLOUDY    68  68 100 SE6G13    29.96S
OELWEIN *      CLOUDY    68  66  94 SE10      29.96R
WATERLOO       CLOUDY    70  66  87 SE8       29.93R
$$

IAZ064-065-067-068-078-290300-
   EAST CENTRAL IOWA

CITY           SKY/WX    TMP DP  RH WIND       PRES   REMARKS
DAVENPORT      CLOUDY    69  67  93 SE12      29.97R
IOWA CITY      MOCLDY    69  68  96 E5        29.95R
MT. PLEASANT * PTCLDY    70  68  94 SE8       29.95S
MUSCATINE *    MOCLDY    70  68  94 SE5       29.95S
QUAD CITIES    CLOUDY    70  67  90 SE9       29.97R
$$

IAZ062-063-075>077-085>089-095>099-290300-
   SOUTHEAST IOWA

CITY           SKY/WX    TMP DP  RH WIND       PRES   REMARKS
BURLINGTON     MOCLDY    71  70  96 E8        29.96R
FAIRFIELD *    PTCLDY    70  68  94 SE9       29.94S
FORT MADISON * CLEAR     72  72 100 E8        29.96F
KEOKUK *       PTCLDY    72  70  94 E10       29.94S
OSKALOOSA *      N/A     70  68  94 SE5       29.93R
CENTERVILLE *  CLEAR     72  72 100 E7        29.94R
OTTUMWA        CLEAR     70  69  97 SE7       29.92R
WASHINGTON *   CLEAR     68  68 100 SE7       29.94S
$$

ABBREVIATIONS USED IN REMARKS
   TC - TEMPERATURES IN CELSIUS
  WCI - WIND CHILL INDEX
   HX - HEAT INDEX
  VSB - VISIBILITY
$$




USA.gov is the U.S. government's official web portal to all federal, state and local government web resources and services.